FW2916 Weather Reports


Display with metric or nautical units.
time (UTC)temp
F
wind
direction
speed
MPH
gust
MPH
rain 1hr
in
rain 24hr
in
rain mn
in
humidity
%
barometer
mb
20260906173043 98 0 0.0 5.0 0.00 0.00 0.00 52 1015.5
20260906171555 97 111 0.0 4.0 0.00 0.00 0.00 53 1015.6
20260906170052 96 94 2.0 6.0 0.00 0.00 0.00 54 1015.9
20260906164549 96 10 1.0 6.0 0.00 0.00 0.00 56 1016.1
20260906163045 96 13 0.0 4.0 0.00 0.00 0.00 59 1016.0
20260906161541 94 11 0.0 4.0 0.00 0.00 0.00 61 1016.1
20260906160054 93 57 1.0 4.0 0.00 0.00 0.00 62 1015.9
20260906154556 93 98 1.0 4.0 0.00 0.00 0.00 65 1015.8
20260906153042 92 0 0.0 3.0 0.00 0.00 0.00 67 1015.8
20260906151542 91 0 0.0 3.0 0.00 0.00 0.00 68 1015.9
20260906150056 90 212 0.0 4.0 0.00 0.00 0.00 70 1015.9
20260906144542 88 0 1.0 4.0 0.00 0.00 0.00 72 1016.0
20260906143041 87 129 1.0 4.0 0.00 0.00 0.00 72 1015.9
20260906141541 86 108 0.0 3.0 0.00 0.00 0.00 73 1015.9
20260906140047 85 117 0.0 2.0 0.00 0.00 0.00 75 1015.8
20260906134555 83 98 0.0 2.0 0.00 0.00 0.00 77 1015.9
20260906133106 81 106 1.0 4.0 0.00 0.00 0.00 78 1015.6
20260906131553 80 0 0.0 2.0 0.00 0.00 0.00 80 1015.6
20260906130049 78 0 0.0 0.0 0.00 0.00 0.00 85 1015.3
20260906124543 75 0 0.0 0.0 0.00 0.00 0.00 89 1015.1
20260906123042 74 0 0.0 0.0 0.00 0.00 0.00 90 1014.8
20260906121551 74 0 0.0 0.0 0.00 0.00 0.00 92 1014.7
20260906120048 74 0 0.0 0.0 0.00 0.00 0.00 90 1014.7
20260906114548 74 0 0.0 0.0 0.00 0.00 0.00 90 1014.8
20260906113042 74 0 0.0 0.0 0.00 0.00 0.00 89 1014.7
20260906111554 75 0 0.0 0.0 0.00 0.00 0.00 88 1014.6
20260906110046 75 0 0.0 0.0 0.00 0.00 0.00 88 1014.6
20260906104551 75 0 0.0 0.0 0.00 0.00 0.00 89 1014.4
20260906103053 74 0 0.0 0.0 0.00 0.00 0.00 92 1014.4
20260906101550 74 0 0.0 0.0 0.00 0.00 0.00 92 1014.3
20260906100047 74 0 0.0 0.0 0.00 0.00 0.00 90 1014.2
20260906094540 74 0 0.0 0.0 0.00 0.00 0.00 91 1014.1
20260906093108 74 0 0.0 0.0 0.00 0.00 0.00 89 1014.0
20260906091553 75 0 0.0 0.0 0.00 0.00 0.00 88 1014.0
20260906090050 76 0 0.0 0.0 0.00 0.00 0.00 87 1014.0
20260906084542 76 0 0.0 0.0 0.00 0.00 0.00 87 1013.9
20260906083052 75 0 0.0 0.0 0.00 0.00 0.00 86 1013.8
20260906081553 75 0 0.0 0.0 0.00 0.00 0.00 87 1013.7
20260906080047 75 0 0.0 0.0 0.00 0.00 0.00 86 1013.7
20260906074545 75 0 0.0 0.0 0.00 0.00 0.00 86 1013.7
20260906073041 76 0 0.0 0.0 0.00 0.00 0.00 86 1013.7
20260906071552 76 0 0.0 0.0 0.00 0.00 0.00 85 1013.7
20260906070049 76 0 0.0 0.0 0.00 0.00 0.00 85 1013.8
20260906064542 77 0 0.0 0.0 0.00 0.00 0.00 84 1013.8
20260906063043 77 0 0.0 0.0 0.00 0.00 0.00 83 1013.9
20260906061557 77 0 0.0 0.0 0.00 0.00 0.00 82 1014.0
20260906060049 78 0 0.0 0.0 0.00 0.00 0.00 81 1014.1
20260906054547 78 0 0.0 0.0 0.00 0.00 0.00 82 1014.2
20260906053044 78 0 0.0 0.0 0.00 0.00 0.00 80 1014.4
20260906051552 79 0 0.0 0.0 0.00 0.00 0.00 79 1014.2
20260906050109 79 0 0.0 0.0 0.00 0.00 0.00 79 1014.2
20260906044542 80 0 0.0 0.0 0.00 0.00 0.00 78 1014.2
20260906043051 80 0 0.0 0.0 0.00 0.00 0.00 80 1014.2
20260906041550 80 0 0.0 0.0 0.00 0.00 0.00 79 1014.1
20260906040048 81 0 0.0 0.0 0.00 0.00 0.00 78 1014.1
20260906034545 82 0 0.0 0.0 0.00 0.00 0.00 75 1013.9
20260906033105 83 0 0.0 0.0 0.00 0.00 0.00 74 1013.7
20260906031548 83 0 0.0 0.0 0.00 0.00 0.00 73 1013.8
20260906030043 84 0 0.0 0.0 0.00 0.00 0.00 74 1013.5
20260906024602 84 0 0.0 0.0 0.00 0.00 0.00 74 1013.4
20260906023048 84 0 0.0 0.0 0.00 0.00 0.00 73 1013.1
20260906021555 84 0 0.0 0.0 0.00 0.00 0.00 72 1013.1
20260906020055 86 0 0.0 0.0 0.00 0.00 0.00 70 1012.8
20260906014555 86 0 0.0 0.0 0.00 0.00 0.00 69 1012.5
20260906013043 87 0 0.0 0.0 0.00 0.00 0.00 66 1012.5
20260906011542 88 0 0.0 0.0 0.00 0.00 0.00 65 1012.4
20260906010054 90 0 0.0 0.0 0.00 0.00 0.00 63 1012.3
20260906004607 91 0 0.0 0.0 0.00 0.00 0.00 61 1012.2
20260906003043 92 0 0.0 3.0 0.00 0.00 0.00 59 1012.3
20260906001542 93 14 0.0 4.0 0.00 0.00 0.00 57 1012.3
20260906000053 95 0 0.0 3.0 0.00 0.00 0.00 56 1012.3
20260905234559 96 96 0.0 4.0 0.00 0.00 0.00 53 1012.1
20260905233044 98 141 0.0 2.0 0.00 0.00 0.00 48 1012.2
20260905231555 99 0 0.0 3.0 0.00 0.00 0.00 44 1012.1
20260905230115 101 0 0.0 4.0 0.00 0.00 0.00 43 1012.0
20260905224542 101 224 0.0 2.0 0.00 0.00 0.00 40 1012.1
20260905223052 101 0 0.0 3.0 0.00 0.00 0.00 42 1012.1
20260905221547 99 155 0.0 1.0 0.00 0.00 0.00 44 1012.2
20260905220044 100 0 0.0 2.0 0.00 0.00 0.00 44 1012.4
20260905214553 102 210 0.0 2.0 0.00 0.00 0.00 41 1012.5
20260905213052 101 122 0.0 4.0 0.00 0.00 0.00 43 1012.7
20260905211554 101 98 0.0 3.0 0.00 0.00 0.00 42 1012.7
20260905210047 103 218 0.0 4.0 0.00 0.00 0.00 42 1012.8
20260905204552 103 238 1.0 4.0 0.00 0.00 0.00 41 1013.0
20260905203055 103 176 0.0 3.0 0.00 0.00 0.00 42 1013.2
20260905201548 102 0 0.0 3.0 0.00 0.00 0.00 43 1013.5
20260905200042 102 0 0.0 3.0 0.00 0.00 0.00 46 1013.7
20260905194552 101 222 1.0 5.0 0.00 0.00 0.00 45 1013.8
20260905193104 101 94 1.0 7.0 0.00 0.00 0.00 45 1013.8
20260905191547 99 0 0.0 3.0 0.00 0.00 0.00 46 1014.0
20260905190044 99 39 1.0 3.0 0.00 0.00 0.00 50 1014.3
20260905184602 98 89 0.0 2.0 0.00 0.00 0.00 47 1014.5
20260905183056 101 69 1.0 5.0 0.00 0.00 0.00 44 1014.6
20260905181547 100 129 2.0 4.0 0.00 0.00 0.00 46 1014.8
20260905180043 101 0 1.0 7.0 0.00 0.00 0.00 46 1015.0
20260905174541 100 0 0.0 2.0 0.00 0.00 0.00 50 1015.2